Location: Piotrkow Trybunalski
(51.4000°N, 19.6830°E)
Time: 15:37:05
(UTC+01:00)

Vanguard 2 - Pass Details

Date: 11 February 2023
Orbit: 553 x 2927 km, 32.9° (Epoch: 24 March)

Event Time Altitude Azimuth Distance (km) Brightness Sun altitude
Rises 21:57:45 0° 251° (WSW) 4,993 11.9 -45.6°
Reaches altitude 10° 22:01:02 10° 242° (WSW) 4,313 11.4 -46.0°
Enters shadow 22:04:30 21° 229° (SW) 3,777 10.9 -46.4°
Maximum altitude 22:11:46 34° 184° (S) 3,527 - -47.1°
Drops below altitude 10° 22:26:00 10° 128° (SE) 5,711 - -48.4°
Sets 22:31:13 0° 121° (ESE) 6,778 - -48.8°
